Location: *
(37.9500°N, 27.3666°E)
Time: 06:12:57
(UTC+00:00)

Cosmos 614 Rocket - Pass Details

Date: 05 June 2022
Orbit: 732 x 764 km, 74.1° (Epoch: 03 July)

Event Time Altitude Azimuth Distance (km) Brightness Sun altitude
Rises 21:28:31 0° 356° (N) 3,226 8.5 -28.7°
Reaches altitude 10° 21:31:28 10° 12° (NNE) 2,300 7.3 -28.8°
Maximum altitude 21:35:22 21° 61° (ENE) 1,667 5.9 -28.9°
Enters shadow 21:36:11 20° 74° (ENE) 1,700 5.8 -28.9°
